STARLINK-2498, 48326

Orbit data source: Space-Track

STARLINK-2498, 48326 is a payload satellite owned by SpaceX/Seattle (US) in LEO that was launched on Thu, 29 Apr 2021 UTC via an FALCON 9 launch vehicle from the Air Force Eastern Test Range (AFETR). Payload-class satellites include a variety of spacecraft equipped with specific instruments for various scientific and technological missions. These include communications satellites like Starlink; space stations such as the ISS; scientific satellites like the Hubble; Earth observation satellites from companies like Planet Labs, Umbra, and HawkEye 360; GPS; miniature CubeSats for education and research; and military/defense satellites.

Loading next visibility...
Identifier
48326, 2021-036BC
Orbit
LEO
Country
Flag of USUS
Related business
Manufacturer
SpaceX/Seattle
Mission
Operational Commercial Communications
Bus & Motor
STARLINK, Unknown motor
Mass
260 kg wet, ~248 kg dry
Launch date (UTC)
2021-04-29 (5 years ago)
Launch vehicle
FALCON 9
Launch site
Air Force Eastern Test Range (AFETR)
Object type
Payload
Rocket body
Debris
Shape & HBR
Box + 1 Pan, 10.1 m
Radar Cross Section
13.562 m², Large (>1 m²)

Expand to show TLE details & history
Last TLE update: 16 hours ago

TLE from 16 hours ago
0 STARLINK-2498
1 48326U 21036BC  26036.98238962 -.00000987  00000-0 -47412-4 0  9997
2 48326  53.0544 243.9557 0001587  92.3673 267.7498 15.06379088263250
Epoch: 2026-02-05T23:34Z
TLE epoch observation values (Epoch: 2026-02-05T23:34:38.463Z)
Latitude
0.00002°
Longitude
114.16865°
Altitude
548.198 km
Speed
7.589 km/s
True Right ascension
16h 15m 49s
True Declination
0° 00' 00"
Sunlit
Object was in daylight at epoch
Visualization orbit readout
Latitude
Unknown
Longitude
Unknown
Altitude
Unknown
Speed
Unknown
Apparent Right ascension
Unknown
Apparent Declination
Unknown
Sunlit
N/A
Visualization observer readout
Local Sidereal Time
18:04:24
Azimuth
Unknown
Elevation
Unknown
Doppler factor
Unknown
Orbital elements
Apogee altitude
548.645 km
Perigee altitude
546.447 km
Semi-major axis
6,925.683 km
Eccentricity
0.00016
Inclination
53.0544°
RAAN
243.9557°
Arg. of periapsis
92.3673°
True anomaly
267.73163°
Mean anomaly
267.7498°
Eccentric anomaly
267.74071°
Mean motion
3.76573 °/min
Orbital period
95.6 mins
BSTAR
-0.000047412
Loading maneuver chart data...
Computing Atmospheric mass density...
Loading historical data...
Loading historical data...
Loading historical data...
Loading historical data...
Loading historical data...
Loading historical data...
Loading historical data...

Documentation

Showing up to 5 results
|